Regional Weather Roundup
Issued by NWS Midland/Odessa, TX

Home | Current Version | Previous Version | Text Only | Print | Product List | Glossary On
Versions: 1 2 3 4 5 6 7 8 9 10 11 12 13 14 15 16 17 18 19 20 21 22 23 24 25 26 27 28 29 30 31 32 33 34 35 36 37 38 39 40 41 42 43 44 45 46 47 48 49 50
000
ASUS44 KMAF 011410
RWRMAF
MIDLAND AREA WEATHER ROUNDUP
NATIONAL WEATHER SERVICE MIDLAND TX
900 AM CDT WED OCT 01 2014

...IN SOUTHWEST TEXAS AND SOUTHEAST NEW MEXICO...

CITY           SKY/WX    TMP DP  RH WIND       PRES   REMARKS
ALPINE         SUNNY     69  56  65 SW7       30.02R
ANDREWS        FAIR      68  63  84 SW12      29.87R
ARTESIA        NOT AVBL
BIG SPRING     SUNNY     72  65  79 S8        29.87R
CARLSBAD       SUNNY     65  48  54 W12       29.88R
DRYDEN           N/A     74  67  78 N6        29.84R
FORT STOCKTON  SUNNY     72  59  63 SW7       29.87R
GUAD PASS      SUNNY     59  39  47 S12       30.01R
HOBBS          SUNNY     61  61 100 CALM      29.90R
MARFA          SUNNY     61  55  82 CALM      30.02R
MIDLAND AIRPK  SUNNY     72  64  75 S8        29.86R
MIDLAND INTL   SUNNY     70  63  78 S9        29.85R
ODESSA         SUNNY     70  63  78 S9        29.87R
PECOS          SUNNY     65  57  74 CALM      29.85R
PRESIDIO       FAIR      72  59  62 N7        29.88S
SEMINOLE       SUNNY     63  62  99 CALM      29.89R FOG
SNYDER         SUNNY     69  64  83 S9        29.85R
WINK           SUNNY     68  64  87 CALM      29.84R
$$
...OTHER STATIONS IN TEXAS...

CITY           SKY/WX    TMP DP  RH WIND       PRES   REMARKS
ABILENE        SUNNY     75  65  70 S12       29.82R
AMARILLO       SUNNY     59  44  57 W8        29.85R
AUSTIN         MOSUNNY   78  72  81 S9        29.83R
BROWNSVILLE    SUNNY     82  82 100 S3        29.81R
CORPUS CHRISTI MOSUNNY   79  77  94 S6        29.82R
DALLAS FTW     PTSUNNY   76  70  82 S13       29.82R
DEL RIO        CLOUDY    73  72  96 SE12      29.81R
EL PASO        SUNNY     64  42  44 CALM      29.92R
HOUSTON INT    PTSUNNY   79  77  94 CALM      29.83R
LUBBOCK        SUNNY     61  52  72 W6        29.86R
SAN ANGELO     CLOUDY    73  67  81 S7        29.83R
SAN ANTONIO    CLOUDY    78  71  79 S5        29.84R
WACO           CLOUDY    78  71  79 S7        29.83S
WICHITA FALLS  NOT AVBL
$$
...OTHER LOCATIONS IN NEW MEXICO...

CITY           SKY/WX    TMP DP  RH WIND       PRES   REMARKS
ALAMAGORDO     MOSUNNY   55  37  50 SW3       29.94R
ALBUQUERQUE    SUNNY     49  34  56 E5        30.00R
CANNON AFB     SUNNY     59  42  53 N8        29.90R
CLOVIS           N/A     57  43  58 N7        29.92R
HOLLOMAN AFB   MOSUNNY   59  38  45 S6        29.92R
ROSWELL        SUNNY     58  46  64 CALM      29.90R
RUIDOSO        SUNNY     46  32  57 NW5       30.06R
SANTA FE       SUNNY     46  32  58 N5        30.02R
TRUTH OR CONSE SUNNY     58  34  40 N6        29.97R
TUCUMCARI      SUNNY     54  44  69 W3        29.89R
$$


USA.gov is the U.S. government's official web portal to all federal, state and local government web resources and services.